Location: C?inelu de Sus
(46.0500°N, 22.9000°E)
Time: 03:51:27
(UTC+00:00)

Daily predictions for brighter satellites

Satellite Brightness Start Highest point End
(mag) Time Altitude Azimuth Time Altitude Azimuth Time Altitude Azimuth
Aureole 2 Rocket 3.6 00:01:12 10° N 00:03:34 27° ENE 00:03:57 26° E
Cosmos 1536 Rocket 4.1 00:03:40 35° SSE 00:05:11 52° E 00:09:32 10° NNE
Cosmos 2233 Rocket 4.1 00:01:09 10° N 00:07:21 70° E 00:11:29 22° SSE
Helios 1B rocket 2.6 00:03:30 10° NNE 00:07:37 63° ESE 00:08:40 45° SSE
Cosmos 1707 4.4 00:08:00 21° WNW 00:08:17 21° WNW 00:11:16 10° NNW
Cosmos 1726 4.4 00:07:08 10° NW 00:08:21 13° WNW 00:08:21 13° WNW
CZ-4 R/B 4.4 00:04:58 10° N 00:09:34 46° WNW 00:10:56 36° WSW
SL-16 R/B 2.5 00:06:03 24° SSE 00:10:02 89° ENE 00:16:20 10° NNW
MOZ.5/SAFIR/RUBIN 5/SL-8 3.9 00:09:13 45° SW 00:10:06 53° W 00:14:40 10° NNW
APEX 4.3 00:08:26 10° NW 00:13:03 46° WSW 00:14:23 38° SSW
AQUA 4.3 00:08:49 10° NNE 00:13:30 53° E 00:15:35 30° SSE
Cosmos 2016 Rocket 4.1 00:08:48 10° NNW 00:14:55 60° W 00:17:32 34° SSW
Cosmos 407 Rocket 3.7 00:11:48 10° NNW 00:17:01 54° WSW 00:18:47 37° SSW
UNK 3.6 00:16:13 36° S 00:18:06 86° WSW 00:22:43 10° NNW
IDEFIX/ARIANE 42P 4.4 00:14:23 10° NE 00:18:35 24° E 00:22:46 10° SE
USA 276 3.2 00:16:00 12° WNW 00:18:43 44° N 00:21:47 10° E
Cosmos 1908 3.7 00:15:29 10° NNW 00:19:11 43° W 00:19:23 42° WSW
Cosmos 1697 Rocket 3.1 00:17:48 30° WSW 00:20:18 52° WNW 00:25:48 10° NNE
Lacrosse 4 Rocket 2.3 00:22:41 30° W 00:24:17 43° NW 00:28:30 10° NNE
Cosmos 676 Rocket 4.0 00:19:23 10° NNW 00:24:43 84° ENE 00:29:01 16° SSE
Cosmos 1975 Rocket 4.3 00:28:30 24° W 00:29:29 26° WNW 00:33:10 10° NNW
Meteor 1-24 Rocket 4.1 00:26:27 22° SSE 00:29:50 56° E 00:35:04 10° NNE
Cosmos 2084 4.4 00:26:01 10° NNW 00:30:20 50° NE 00:34:45 10° ESE
Landsat 4 4.0 00:27:25 10° NNE 00:31:11 61° ESE 00:32:32 35° SSE
GP-B 3.3 00:26:52 10° N 00:31:18 68° E 00:33:41 26° SSE
Cosmos 1626 2.5 00:32:21 41° WSW 00:32:57 46° WNW 00:36:32 10° N
Meteor 1-29 3.1 00:31:27 10° NNE 00:34:52 65° ESE 00:35:51 41° SSE
Cosmos 1025 Rocket 3.6 00:33:45 34° WSW 00:35:00 43° WNW 00:39:13 10° N
Cosmos 1980 Rocket 2.2 00:32:16 31° SW 00:35:01 72° WNW 00:40:43 10° NNE
Cosmos 1674 4.1 00:35:01 24° W 00:35:36 25° WNW 00:38:49 10° NNW
Cosmos 1624 Rocket 4.2 00:33:23 32° SW 00:35:49 66° WNW 00:41:09 10° NNE
Lacrosse 5 4.1 00:32:52 10° WNW 00:37:00 24° N 00:41:06 10° NE
ADEOS Rocket 3.8 00:32:12 10° SSE 00:39:47 72° ENE 00:47:33 10° N
SeaSat 1 4.1 00:38:18 10° N 00:42:17 25° NW 00:45:23 14° W
SL-19 R/B 4.1 00:38:49 10° NNE 00:44:19 81° WNW 00:47:19 27° SSW
ADEOS II 2.2 00:41:00 10° NNE 00:46:17 75° ESE 00:49:40 23° S
Cosmos 1954 Rocket 4.0 00:42:34 10° NNW 00:47:48 62° WSW 00:51:38 18° S
GRACE-FO 1 4.5 00:45:02 10° N 00:48:40 82° W 00:50:12 33° S
Cosmos 2227 Rocket 3.8 00:45:39 10° WNW 00:48:56 16° W 00:49:13 16° WSW
GRACE-FO 2 4.5 00:45:28 10° N 00:49:07 81° W 00:50:38 33° S
NOSS 3-2 (A) 4.0 00:45:48 21° S 00:49:12 46° ESE 00:55:12 10° NE
Cosmos 2285 Rocket 4.2 00:46:03 26° SW 00:49:51 66° WNW 00:56:17 10° NNE
Cosmos 2297 Rocket 4.2 00:48:45 10° WNW 00:50:26 11° W 00:50:26 11° W
Cosmos 2227 4.2 00:44:54 10° NNW 00:50:36 88° ENE 00:56:14 10° SSE
USA 281 3.5 00:47:23 22° SSW 00:51:22 44° WSW 00:57:38 10° NW
Meteor 2-10 Rocket 3.9 00:46:43 10° N 00:52:24 70° ENE 00:57:47 10° SSE
Cosmos 1452 Rocket 3.7 00:52:20 22° S 00:55:47 67° ESE 01:01:03 10° NNE
Cosmos 2056 Rocket 4.1 00:56:00 23° WSW 00:58:43 42° WNW 01:03:37 10° N
BREEZE-M DEB (TANK) 2.1 00:58:19 32° SSW 00:59:25 49° SSE 01:01:38 10° ENE
Cosmos 405 2.9 00:58:43 10° NNW 01:02:12 63° W 01:03:54 27° S
CZ-3B R/B 4.1 00:48:05 10° WSW 01:04:41 52° NNW 01:08:54 10° NE
USA 238 DEB 4.2 01:01:11 17° S 01:06:07 50° ESE 01:12:38 10° NE
USA 238 4.2 01:01:17 16° S 01:06:12 49° ESE 01:12:43 10° NE
Cosmos 2278 4.2 01:03:23 21° WSW 01:07:00 49° WNW 01:12:32 10° NNE
Meteor 2-5 Rocket 3.9 01:05:25 22° SSW 01:09:00 57° WNW 01:14:31 10° N
Cosmos 2228 2.9 01:04:44 10° NNW 01:09:03 77° W 01:12:42 14° S
USA 215 3.7 01:03:31 10° SSE 01:09:28 37° SW 01:15:28 10° WNW
Resurs 1-4 Rocket 3.0 01:04:53 10° N 01:09:36 34° WNW 01:12:44 18° WSW
Cosmos 1892 Rocket 4.1 01:07:02 12° S 01:10:54 54° E 01:15:09 10° NNE
DELTA 2 DEB (DPAF) 4.2 01:07:54 17° S 01:11:16 59° WSW 01:15:42 10° NNW
CENTAUR R/B 3.2 01:06:48 15° S 01:11:20 47° ESE 01:17:51 10° NE
BREEZE-M DEB (TANK) 4.2 01:09:55 13° W 01:14:29 80° NNW 01:33:34 10° ENE
Cosmos 1300 3.7 01:12:44 10° NNW 01:16:03 28° W 01:17:23 23° SW
Cosmos 1850 Rocket 4.0 01:10:58 10° NNW 01:16:21 89° WSW 01:21:41 10° SSE
SL-16 R/B 2.3 01:12:37 17° SSW 01:17:02 74° ESE 01:22:43 10° NNE
CZ-2D R/B 3.3 01:14:58 10° N 01:19:35 30° WNW 01:23:00 16° WSW
Cosmos 1891 Rocket 4.4 01:13:51 10° N 01:19:55 80° W 01:25:56 10° S
Atlas Centaur 2 4.1 01:16:46 17° SSW 01:20:31 23° S 01:26:08 10° SE
Cosmos 1726 Rocket 3.5 01:21:20 10° NNW 01:25:45 79° W 01:30:09 10° S
Cosmos 1606 Rocket 3.7 01:23:23 10° NNW 01:27:45 59° W 01:32:04 10° S
Cosmos 1455 2.4 01:24:58 10° N 01:28:51 76° E 01:32:42 10° SSE
IRS-1D 3.8 01:23:48 10° N 01:29:04 59° WNW 01:33:25 15° SSW
Cosmos 1741 Rocket 3.9 01:24:41 10° NNW 01:29:55 73° WSW 01:35:06 10° SSE
CZ-4B R/B 4.0 01:25:19 10° NNE 01:30:20 59° ESE 01:35:27 10° S
Cosmos 1340 3.9 01:30:08 17° WSW 01:32:05 26° WNW 01:35:19 10° NNW
SL-08 R/B 3.6 01:29:50 10° SSE 01:34:27 69° ENE 01:39:03 10° N
Cosmos 2058 Rocket 3.2 01:31:02 10° N 01:35:35 82° E 01:40:05 10° S
Cosmos 2263 Rocket 2.7 01:30:49 10° NW 01:35:59 37° WSW 01:41:09 10° S
Cosmos 1844 Rocket 3.6 01:30:45 10° NNW 01:36:17 53° ENE 01:41:49 10° SE
Cosmos 389 Rocket 2.3 01:36:23 10° NNW 01:39:53 83° W 01:43:18 10° S
Aureole 1 Rocket 2.8 01:36:44 10° NNW 01:40:20 74° WSW 01:44:56 10° SSE
Cosmos 2322 Rocket 2.3 01:35:41 12° SSW 01:40:53 88° ESE 01:46:38 10° NNE
CZ-2D R/B 4.4 01:37:15 10° NNE 01:41:36 51° E 01:45:55 10° S
CZ-2C R/B 4.0 01:38:26 10° NNE 01:43:11 36° E 01:47:56 10° SSE
Okean 1-7 Rocket 3.9 01:40:26 10° S 01:44:58 74° E 01:49:33 10° NNE
ARIANE 5 R/B 2.6 01:41:30 10° NNE 01:46:39 79° ESE 01:51:41 10° S
CZ-4C R/B 3.9 01:43:21 10° SSW 01:47:17 39° W 01:51:03 10° NNW
USA 32 4.0 01:44:21 10° N 01:49:37 80° W 01:54:51 10° S
Meteor 1-28 Rocket 4.4 01:48:42 13° SW 01:51:12 24° W 01:54:17 10° NW
Cosmos 1464 Rocket 4.2 01:47:14 10° NNW 01:53:11 51° W 01:59:11 10° SSW
Cosmos 1184 Rocket 3.8 01:50:58 10° S 01:54:01 43° E 01:57:06 10° NNE
Tsikada Rocket 4.2 01:47:44 10° S 01:54:06 78° E 02:00:28 10° N
SL-16 R/B 4.1 01:51:07 11° WSW 01:54:26 16° W 01:58:08 10° NW
USA 276 2.1 01:51:54 10° WNW 01:55:01 56° SSW 01:58:08 10° SE
Cosmos 2219 Rocket 4.0 01:52:54 10° SSE 01:57:39 28° ESE 02:02:26 10° NE
IDEFIX/ARIANE 42P 3.0 01:53:21 10° N 01:58:27 51° WNW 02:03:30 10° SW
Cosmos 2360 Rocket 2.4 01:54:36 10° SSW 02:00:15 74° ESE 02:05:55 10° NNE
COSMOS 2441 4.4 01:56:16 10° N 02:01:11 73° WNW 02:06:03 10° SSW
Meteor 2-1 Rocket 4.2 01:56:49 10° NNW 02:02:28 73° W 02:07:58 10° S
Cosmos 1626 Rocket 3.9 02:00:44 10° S 02:05:07 71° E 02:09:34 10° NNE
Cosmos 2034 Rocket 4.2 02:00:33 10° NNW 02:06:44 57° W 02:12:50 10° SSW
Cosmos 1346 Rocket 3.7 02:05:00 10° SW 02:08:33 33° WNW 02:12:08 10° N
IRS-1C 4.4 02:04:20 10° N 02:09:33 55° WNW 02:14:44 10° SW
Cosmos 1634 Rocket 4.3 02:05:44 10° N 02:11:58 77° E 02:18:12 10° SSE
Cosmos 1703 3.3 02:08:11 10° SSW 02:12:01 66° W 02:15:54 10° N
COSMOS 2428 4.4 02:07:42 10° SSE 02:12:38 31° ESE 02:17:36 10° NE
PAYLOAD A 4.0 02:12:29 10° NNE 02:17:12 74° ESE 02:21:53 10° S
Meteor 1-4 Rocket 4.0 02:16:20 10° N 02:19:55 44° ENE 02:23:27 10° SSE
Cosmos 1980 Rocket 4.2 02:16:39 10° WNW 02:20:05 16° NW 02:23:30 10° N
NOSS 3-2 (C) 3.5 02:14:39 10° SW 02:20:17 77° NW 02:26:50 10° NE
Cosmos 1302 Rocket 4.2 02:15:33 10° SSW 02:20:50 83° ESE 02:26:10 10° NNE
Lacrosse 5 3.8 02:16:43 10° NW 02:21:16 31° NNE 02:25:47 10° E
